Powrót do katalogu

HULIANWANG DIGUI-46

AktywnyŁącznośćLEO
NORAD 65049·PAYLOAD·🇨🇳 China

Wystrzelony Jul 30, 2025 z Wenchang Space Launch Site

Loading…

Następne Przeloty (najbliższe 24 godziny)

TLE

ŚwieżeSource: Space-Track

Epoka: Sep 14, 2026, 21:07 UTC

1 65049U 25162G   26257.88017988 -.00000087  00000-0  79071-4 0  9995
2 65049  50.0070 304.0037 0000698 263.5550  96.5242 13.29330621 55293

Śledź HULIANWANG DIGUI-46 w czasie rzeczywistym z AllMySat

Download on the App Store